{"data":{"norad_id":55365,"epoch":"2026-05-24T23:33:51.484032Z","epoch_age_seconds":70391,"freshness":"FRESH","line1":"1 55365U 23013AL  26144.98184588 -.00001917  00000+0 -60174-4 0  9992","line2":"2 55365  43.0017 250.4524 0000963 302.3043  57.7716 15.27565686183136","mean_motion":15.27565686,"eccentricity":9.63e-5,"inclination_deg":43.0017,"raan_deg":250.4524,"arg_perigee_deg":302.3043,"mean_anomaly_deg":57.7716,"bstar":-6.0174e-5,"rev_number":18313,"period_min":94.267632036872,"perigee_km":482.43122129116,"apogee_km":483.7526939884,"semimajor_km":6861.2289576398,"source":"CELESTRAK","updated_at":"2026-05-25T13:38:17.766498Z"}}